カタログに戻る

BREEZE-M DEB

運用中HEO
NORAD 38649·DEBRIS·🇷🇺 Russia

打ち上げ Mar 14, 2008 から Baikonur Cosmodrome

Loading…

次のパス (今後24時間)

TLE

最新Source: Space-Track

元期: Sep 13, 2026, 05:52 UTC

1 38649U 08011CY  26256.24465461  .00017682  00000-0  46179-1 0  9995
2 38649  48.7540 127.6604 6359659  93.5567   0.5827  3.36608171188109

AllMySatでBREEZE-M DEBをリアルタイム追跡

Download on the App Store